EW2077 Weather Reports


Display with metric or nautical units.
time (UTC)temp
F
wind
direction
speed
MPH
gust
MPH
rain 1hr
in
rain 24hr
in
rain mn
in
humidity
%
barometer
mb
20260902094516 50 190 0.0 0.0 0.00 0.00 0.00 77 1035.4
20260902093015 50 190 0.0 0.0 0.00 0.00 0.00 77 1035.5
20260902091518 50 190 0.0 0.0 0.00 0.00 0.00 76 1035.6
20260902090013 50 190 0.0 0.0 0.00 0.00 0.00 76 1035.6
20260902084509 50 190 0.0 0.0 0.00 0.00 0.00 76 1035.5
20260902083008 50 190 0.0 0.0 0.00 0.00 0.00 75 1035.6
20260902081507 51 190 0.0 0.0 0.00 0.00 0.00 75 1035.5
20260902080006 51 190 0.0 0.0 0.00 0.00 0.00 75 1035.5
20260902074507 51 190 0.0 0.0 0.00 0.00 0.00 74 1035.5
20260902073003 52 190 0.0 0.0 0.00 0.00 0.00 74 1035.5
20260902071501 52 190 0.0 0.0 0.00 0.00 0.00 74 1035.5
20260902064559 52 190 0.0 0.0 0.00 0.02 0.00 74 1035.5
20260902063105 52 190 0.0 0.0 0.00 0.02 0.00 75 1035.3
20260902061616 52 190 0.0 0.0 0.00 0.02 0.00 76 1035.4
20260902054552 52 190 0.0 0.0 0.00 0.02 0.02 74 1035.5
20260902053051 53 190 0.0 0.0 0.00 0.02 0.02 74 1035.2
20260902051550 53 190 0.0 0.0 0.00 0.02 0.02 72 1035.4
20260902050050 54 190 0.0 0.0 0.00 0.02 0.02 73 1035.3
20260902044550 54 190 0.0 0.0 0.00 0.02 0.02 73 1035.3
20260902043048 55 190 0.0 0.0 0.00 0.02 0.02 72 1035.3
20260902041557 55 190 0.0 0.0 0.00 0.02 0.02 70 1035.4
20260902040050 56 190 0.0 0.0 0.00 0.02 0.02 69 1035.3
20260902034548 57 190 0.0 0.0 0.00 0.02 0.02 68 1035.3
20260902033047 58 190 0.0 0.0 0.00 0.02 0.02 67 1035.2
20260902031546 58 190 0.0 0.0 0.00 0.02 0.02 64 1035.0
20260902030045 59 190 0.0 0.0 0.00 0.02 0.02 63 1035.0
20260902024545 60 190 0.0 0.0 0.00 0.05 0.02 62 1034.7
20260902023044 61 190 0.0 0.0 0.00 0.05 0.02 60 1034.7
20260902021544 62 190 0.0 0.0 0.00 0.05 0.02 57 1034.3
20260902020053 63 190 0.0 0.0 0.00 0.05 0.02 55 1034.1
20260902014543 65 190 0.0 0.0 0.00 0.05 0.02 53 1034.0
20260902013042 66 190 0.0 0.0 0.00 0.05 0.02 52 1034.0
20260902011542 67 190 0.0 0.0 0.00 0.05 0.02 50 1034.1
20260902010041 67 190 0.0 0.0 0.00 0.05 0.02 48 1034.0
20260902004540 69 190 0.0 0.0 0.00 0.05 0.02 45 1033.9
20260902003040 70 190 0.0 0.0 0.00 0.05 0.02 45 1033.8
20260902001540 71 190 0.0 0.0 0.00 0.05 0.02 45 1033.8
20260902000041 71 190 0.0 0.0 0.00 0.05 0.02 43 1033.8
20260901234540 71 190 0.0 0.0 0.00 0.05 0.02 41 1033.7
20260901233040 72 190 0.0 2.0 0.00 0.05 0.02 41 1033.7
20260901231543 73 213 1.0 4.0 0.00 0.05 0.02 39 1033.7
20260901230046 73 213 0.0 0.0 0.00 0.05 0.02 40 1033.6
20260901224534 75 213 0.0 0.0 0.00 0.05 0.02 37 1033.5
20260901223041 75 213 0.0 0.0 0.00 0.05 0.02 38 1033.7
20260901221531 73 212 0.0 0.0 0.00 0.05 0.02 42 1033.8
20260901220041 72 212 0.0 4.0 0.00 0.05 0.02 39 1034.0
20260901214532 72 211 0.0 4.0 0.00 0.05 0.02 39 1034.0
20260901213027 73 211 0.0 4.0 0.00 0.05 0.02 38 1034.1
20260901211526 73 212 0.0 5.0 0.00 0.05 0.02 40 1034.1
20260901210029 75 219 0.0 0.0 0.00 0.05 0.02 38 1034.2
20260901204522 74 220 0.0 2.0 0.00 0.05 0.02 42 1034.1
20260901203040 73 217 1.0 5.0 0.00 0.05 0.02 41 1034.1
20260901201520 74 212 0.0 0.0 0.00 0.05 0.02 41 1034.4
20260901200019 74 211 0.0 2.0 0.00 0.05 0.02 38 1034.3
20260901194517 75 211 0.0 4.0 0.00 0.05 0.02 39 1034.6
20260901193017 75 190 0.0 3.0 0.00 0.05 0.02 36 1034.8
20260901191516 77 160 0.0 5.0 0.00 0.05 0.02 35 1034.7
20260901190016 77 273 0.0 7.0 0.00 0.05 0.02 30 1034.8
20260901184509 77 340 0.0 4.0 0.00 0.05 0.02 31 1035.1
20260901183011 75 238 0.0 4.0 0.00 0.05 0.02 30 1035.3
20260901181506 75 13 0.0 4.0 0.00 0.05 0.02 31 1035.5
20260901180002 75 306 2.0 7.0 0.00 0.05 0.02 31 1035.6
20260901174621 75 351 0.0 5.0 0.00 0.05 0.02 32 1035.8
20260901173057 73 5 0.0 5.0 0.00 0.05 0.02 35 1036.0
20260901171558 72 261 0.0 3.0 0.00 0.05 0.02 38 1036.0
20260901170053 71 237 0.0 0.0 0.00 0.05 0.02 42 1036.0
20260901164550 69 319 0.0 0.0 0.00 0.05 0.02 46 1036.0
20260901163044 66 326 0.0 0.0 0.00 0.05 0.02 54 1035.9
20260901161540 63 326 0.0 0.0 0.00 0.05 0.02 81 1035.9
20260901160034 59 326 0.0 0.0 0.00 0.05 0.02 87 1036.1
20260901154532 58 326 0.0 0.0 0.00 0.05 0.02 90 1036.1
20260901153033 56 344 0.0 0.0 0.00 0.05 0.02 93 1036.3
20260901151524 55 344 0.0 0.0 0.00 0.05 0.02 94 1036.3
20260901150028 54 344 0.0 0.0 0.00 0.05 0.02 94 1036.2
20260901144520 53 344 0.0 0.0 0.00 0.05 0.02 93 1036.4
20260901143018 52 344 0.0 0.0 0.00 0.05 0.02 93 1036.3
20260901141517 52 344 0.0 0.0 0.00 0.05 0.02 93 1036.2
20260901140023 51 344 0.0 0.0 0.00 0.05 0.02 93 1036.2
20260901134516 51 344 0.0 0.0 0.00 0.05 0.02 93 1036.1
20260901133015 51 344 0.0 0.0 0.00 0.05 0.02 93 1035.9
20260901131514 51 344 0.0 0.0 0.00 0.05 0.02 93 1035.5
20260901130013 50 344 0.0 0.0 0.00 0.05 0.02 93 1035.3
20260901124512 50 344 0.0 0.0 0.00 0.05 0.02 93 1035.0
20260901123012 50 344 0.0 0.0 0.00 0.05 0.02 93 1034.7
20260901121512 50 344 0.0 0.0 0.00 0.05 0.02 92 1034.4
20260901120009 50 344 0.0 0.0 0.00 0.05 0.02 92 1034.3
20260901114507 51 344 0.0 0.0 0.00 0.05 0.02 92 1034.5
20260901113007 50 344 0.0 0.0 0.00 0.05 0.02 92 1034.4
20260901111506 51 344 0.0 0.0 0.00 0.05 0.02 92 1034.4
20260901110004 51 344 0.0 0.0 0.00 0.05 0.02 92 1034.5
20260901104505 51 344 0.0 0.0 0.00 0.05 0.02 92 1034.7
20260901103106 51 344 0.0 0.0 0.00 0.05 0.02 92 1034.8
20260901101559 52 344 0.0 0.0 0.00 0.05 0.02 92 1034.8
20260901100054 52 344 0.0 0.0 0.00 0.05 0.02 92 1035.1